This is the latest recevied weather packets stored in our database for station/object IW1CBG-23. If no packets are shown the sender has not sent any weather packets the latest 10 day(s).
| Time | Temp. | Humidity | Pressure | Rain* | Wind** | Luminosity | Snow |
|---|---|---|---|---|---|---|---|
| 1777792866 | 12.22° C | 49% | 1014.8 hPa | - | - | - | - |
| 1777791631 | 12.22° C | 47% | 1014.8 hPa | - | - | - | - |
| 1777790395 | 13.89° C | 43% | 1014.8 hPa | - | - | - | - |
| 1777789155 | 13.33° C | 44% | 1014.9 hPa | - | - | - | - |
| 1777787915 | 12.22° C | 44% | 1014.9 hPa | - | - | - | - |
| 1777786677 | 11.11° C | 44% | 1014.9 hPa | - | - | - | - |
| 1777785438 | 11.11° C | 46% | 1014.9 hPa | - | - | - | - |
| 1777784201 | 10.56° C | 48% | 1014.9 hPa | - | - | - | - |
| 1777782963 | 10.56° C | 51% | 1014.9 hPa | - | - | - | - |
| 1777781727 | 11.11° C | 62% | 1014.9 hPa | - | - | - | - |
| 1777780488 | 11.67° C | 59% | 1015 hPa | - | - | - | - |
| 1777779251 | 11.67° C | 59% | 1015.1 hPa | - | - | - | - |
| 1777778014 | 11.11° C | 66% | 1015.1 hPa | - | - | - | - |
| 1777776777 | 11.11° C | 66% | 1015.3 hPa | - | - | - | - |
| 1777775540 | 11.11° C | 65% | 1015.4 hPa | - | - | - | - |
| 1777774303 | 11.67° C | 63% | 1015.5 hPa | - | - | - | - |
| 1777773067 | 11.67° C | 62% | 1015.6 hPa | - | - | - | - |
| 1777770590 | 11.67° C | 58% | 1015.7 hPa | - | - | - | - |
| 1777768116 | 12.22° C | 67% | 1016.2 hPa | - | - | - | - |
| 1777766879 | 12.22° C | 67% | 1016.4 hPa | - | - | - | - |
| 1777765641 | 12.22° C | 68% | 1016.6 hPa | - | - | - | - |
| 1777764403 | 11.67° C | 69% | 1016.7 hPa | - | - | - | - |
| 1777763165 | 12.22° C | 68% | 1016.8 hPa | - | - | - | - |
| 1777761941 | 12.22° C | 68% | 1016.9 hPa | - | - | - | - |
| 1777760689 | 12.22° C | 65% | 1016.9 hPa | - | - | - | - |
* Rain since midnight (hover to see other rain measurements)
** Current wind speed in m/s (hover to see current wind gust speed)